Torna al catalogo

TITAN 3C TRANSTAGE DEB

AttivoMEO
NORAD 43516·DEBRIS·🇺🇸 United States

Lanciato Feb 9, 1969 da Cape Canaveral Space Force Station

Loading…

Prossimi Passaggi (prossime 24 ore)

TLE

AggiornatoSource: Space-Track

Epoca: Sep 12, 2026, 01:36 UTC

1 43516U 69013U   26255.06684204 -.00000121  00000-0  00000-0 0  9993
2 43516   1.7997  65.0857 0105624  28.9860 332.4453  0.96513278 29361

Traccia TITAN 3C TRANSTAGE DEB in tempo reale con AllMySat

Download on the App Store